Powrót do katalogu

STARLINK-4582

AktywnyŁącznośćVLEO
NORAD 53569·PAYLOAD·🇺🇸 United States

Wystrzelony Aug 19, 2022 z Cape Canaveral Space Force Station

Loading…

Następne Przeloty (najbliższe 24 godziny)

TLE

ŚwieżeSource: CelesTrak SupGP

Epoka: Sep 15, 2026, 02:17 UTC

1 53569C 22101AU  26258.09562500 -.00027748  00000+0 -81975-3 0  2584
2 53569  53.1569 269.1051 0001154  84.2275 152.5245 15.34407715    14

Śledź STARLINK-4582 w czasie rzeczywistym z AllMySat

Download on the App Store